Temp
56 56 56 56 56 57 56 57 57 57 57 58 58 58 58 58 57 54 48 48 46 42 44 50 54 50 50 47 46 50 49 49 46 42 42 41 40 43 40 42 40 40 37 36 35 33 36 57 56 49 53 56 58 59
56 56 55 56 56 55 56 57 57 57 57 58 58 58 58 58 57 55 44 50 50 44 46 49 54 58 58 56 51 46 47 46 48 43 40 40 41 40 38 38 42 40 44 41 42 43 52 56 56 59 58 56 59 57
55 55 55 55 55 55 56 56 56 57 57 57 58 58 58 58 57 55 50 49 45 41 43 43 48 53 52 55 61 49 47 50 47 49 43 41 41 41 38 38 39 44 45 44 46 49 52 55 58 59 61 62 63 62
54 55 55 55 55 55 55 56 56 56 56 56 56 57 57 58 56 55 49 50 48 47 41 43 55 50 55 53 57 61 55 51 49 48 44 42 42 45 40 42 41 47 46 44 43 49 53 56 58 63 62 61 60 61
54 54 54 54 55 55 55 55 55 55 56 56 56 56 56 57 55 51 51 52 51 48 41 41 49 50 51 53 56 58 54 50 47 47 43 43 42 43 39 40 38 45 45 43 43 51 55 56 60 59 57 57 58 58
54 54 54 54 55 55 55 55 55 55 55 56 56 56 56 55 54 47 46 52 55 52 45 39 46 48 52 54 55 52 51 49 47 47 44 42 44 44 39 37 46 47 49 50 51 56 56 56 58 58 56 57 58 58
54 54 54 54 55 55 55 55 55 55 55 55 55 55 55 54 48 43 43 51 53 51 42 40 39 50 53 49 50 50 49 47 48 44 43 43 43 44 40 38 50 50 51 52 53 55 54 56 52 59 58 59 60 60
53 54 54 54 54 55 55 55 55 55 55 55 55 55 54 54 52 49 51 54 53 47 43 38 37 44 51 49 48 47 46 46 45 43 43 43 42 42 40 44 47 49 51 52 53 59 57 58 58 56 58 57 57 57
54 54 54 54 54 54 54 54 54 54 54 54 54 54 48 48 48 50 59 57 53 48 41 44 35 38 49 46 48 48 47 43 45 42 43 44 41 39 44 46 48 50 50 52 55 58 58 54 54 55 58 58 57 57
54 54 54 54 54 54 54 54 54 54 53 54 48 44 45 49 57 56 51 47 46 46 44 41 38 37 43 44 45 46 44 44 41 43 44 41 40 46 48 49 49 50 53 56 55 55 56 55 55 55 55 56 57 58
53 53 53 53 53 54 54 54 54 53 52 45 43 46 48 53 50 48 44 42 43 41 43 42 38 37 45 43 42 45 42 41 39 42 43 45 44 47 52 52 53 53 56 58 58 58 59 56 55 55 56 57 56 57
53 53 53 53 53 54 54 54 53 48 42 45 45 48 47 46 45 42 42 43 42 40 45 44 45 40 42 44 46 45 42 42 38 46 46 43 47 55 51 53 54 55 58 59 61 59 59 59 58 58 57 56 56 57
53 53 53 53 53 54 54 54 53 53 50 48 46 44 44 42 36 39 38 42 42 47 49 49 47 43 46 45 47 44 42 40 46 45 44 45 53 51 51 52 54 58 60 59 60 60 60 58 58 57 56 56 56 55
53 53 53 53 53 54 54 54 54 51 46 44 41 34 36 38 37 43 44 44 48 48 49 49 47 46 50 47 43 41 42 45 40 39 44 48 53 51 51 53 55 57 58 57 57 58 57 56 55 56 55 55 55 54
53 53 53 53 54 54 53 54 53 49 46 42 43 35 35 40 45 48 49 47 50 49 49 46 47 48 47 47 42 41 40 39 43 43 46 51 50 50 51 55 57 57 56 57 57 56 56 55 54 54 55 56 55 55
53 52 51 53 53 53 53 52 50 48 46 43 42 40 38 37 38 44 44 45 49 47 46 47 43 44 44 44 43 40 40 41 44 50 52 48 51 51 52 57 57 57 56 56 55 55 56 55 54 53 54 54 54 54
51 44 52 53 53 53 53 49 47 44 42 42 41 39 37 37 37 39 41 46 51 48 43 44 43 45 48 42 40 42 41 45 47 48 48 50 52 52 54 57 57 56 56 55 55 55 55 56 55 53 51 50 50 51
44 46 52 53 52 50 48 48 46 44 41 42 36 38 39 40 39 40 43 47 47 47 47 44 46 43 43 44 43 44 46 47 47 48 51 52 53 54 56 57 57 56 55 54 54 55 56 55 52 49 49 49 50 49
50 50 51 52 50 46 42 45 46 40 42 43 41 41 41 42 43 47 47 49 50 50 48 46 43 43 45 46 47 49 47 47 48 50 53 55 55 56 57 57 57 56 55 55 55 57 57 57 56 53 52 50 49 50
52 53 53 53 52 44 40 40 47 42 40 43 40 39 40 41 43 45 45 45 47 47 45 44 45 48 48 48 50 51 49 49 51 52 53 55 56 57 57 57 57 57 56 56 57 54 58 57 57 54 54 53 53 52
50 49 52 51 47 45 41 42 42 43 43 40 41 40 40 42 41 42 42 45 43 44 45 47 48 51 52 53 53 54 53 52 52 55 55 54 56 56 57 58 58 57 56 57 57 56 55 57 58 57 57 56 56 56
46 53 47 49 44 43 40 44 42 44 42 42 42 44 42 42 44 42 46 42 44 48 49 50 54 54 51 53 55 55 54 55 56 55 53 54 55 55 56 57 58 57 57 58 58 57 59 60 60 58 57 55 55 57
50 48 45 46 42 40 40 47 40 43 39 42 44 42 43 45 47 46 41 44 48 49 51 52 54 52 50 54 56 55 55 55 54 55 56 57 57 57 58 58 58 58 58 58 59 58 58 53 54 56 55 56 56 56
50 44 42 41 40 37 42 40 43 41 43 42 42 41 44 46 49 46 45 47 49 49 48 48 49 48 50 52 52 53 55 56 56 57 58 57 56 56 58 59 59 60 60 59 59 59 59 58 54 56 57 58 57 57
38 39 38 34 41 39 39 39 42 41 40 42 40 41 44 47 43 44 44 48 46 47 49 48 47 49 49 51 53 54 57 56 56 56 58 58 58 56 57 57 58 60 61 58 56 58 57 56 57 58 58 58 58 58
34 40 36 39 40 38 39 37 38 38 39 39 42 44 46 44 42 42 44 46 47 48 49 50 50 49 51 53 53 54 56 58 58 56 57 59 61 58 57 59 59 57 60 60 59 58 57 58 60 61 60 57 51 59
35 38 41 44 42 42 40 42 42 40 38 39 41 41 40 39 41 45 50 49 49 50 51 52 53 51 55 53 56 57 58 58 58 58 59 59 62 62 64 64 61 60 61 62 62 62 62 63 64 63 60 60 61 61
38 37 34 38 38 41 41 41 40 39 42 44 44 39 39 40 41 48 51 52 51 52 54 53 54 55 57 57 58 58 59 59 60 60 59 60 64 61 65 63 62 52 64 63 63 62 63 63 62 62 62 61 61 62
35 38 38 36 38 40 41 40 41 44 48 45 42 42 45 48 51 51 52 54 53 54 52 53 55 58 58 58 59 59 59 59 59 58 56 56 60 61 62 64 61 61 60 60 50 57 66 65 65 65 64 62 62 62
42 43 41 40 40 41 45 46 44 47 49 48 48 47 47 48 51 54 53 53 52 53 54 55 56 57 57 57 57 57 59 59 60 60 57 57 60 60 61 61 61 61 62 63 64 61 51 61 59 64 63 62 62 62
45 41 38 39 40 45 49 52 52 52 51 51 53 49 48 49 53 57 56 55 54 54 55 55 56 57 57 57 57 57 56 58 58 60 61 61 61 62 61 62 62 62 63 65 65 64 64 63 63 64 64 64 64 60
46 43 40 38 41 46 47 45 46 46 48 49 50 51 51 51 50 54 56 56 55 55 51 56 57 57 59 59 59 57 47 58 58 60 61 62 62 62 62 61 62 63 64 65 65 65 65 64 63 64 65 65 64 65
44 43 43 40 41 44 47 46 47 47 48 48 50 52 53 51 49 54 58 59 58 58 58 58 59 60 61 61 60 59 51 59 53 48 50 51 52 55 62 62 64 65 66 65 65 66 65 65 65 66 66 66 65 65
MSLP
1022.76 1022.73 1022.69 1022.51 1022.28 1021.95 1021.73 1021.31 1020.91 1020.57 1020.10 1019.59 1019.13 1018.74 1018.28 1017.82 1017.50 1017.19 1017.16 1016.89 1016.96 1016.70 1014.82 1013.73 1013.03 1012.60 1012.52 1012.68 1012.80 1012.78 1012.81 1012.90 1013.22 1013.96 1014.78 1014.94 1014.75 1014.41 1014.42 1014.27 1014.39 1014.89 1015.33 1015.53 1015.16 1014.18 1012.44 1010.92 1010.62 1010.84 1010.39 1009.94 1010.06 1009.94
1022.63 1022.61 1022.50 1022.34 1022.12 1021.94 1021.56 1021.11 1020.78 1020.40 1019.98 1019.54 1019.21 1018.78 1018.34 1017.94 1017.64 1017.38 1017.39 1016.98 1016.98 1017.08 1014.99 1013.77 1012.86 1012.04 1011.81 1011.94 1012.30 1012.90 1013.30 1013.22 1013.38 1014.25 1015.12 1015.26 1015.28 1015.21 1015.37 1015.31 1014.57 1014.73 1014.43 1014.64 1014.41 1012.84 1011.43 1010.77 1010.44 1009.92 1009.78 1009.69 1009.43 1009.47
1022.45 1022.38 1022.30 1022.13 1021.92 1021.72 1021.44 1021.09 1020.60 1020.19 1019.86 1019.55 1019.10 1018.68 1018.27 1017.95 1017.68 1017.63 1017.43 1017.28 1017.04 1016.89 1015.06 1013.89 1012.26 1011.48 1011.46 1011.61 1011.67 1012.84 1013.03 1012.68 1013.19 1013.33 1014.58 1015.33 1015.60 1015.50 1015.83 1015.58 1014.91 1014.23 1014.10 1014.14 1013.74 1011.93 1011.12 1010.62 1010.06 1009.69 1009.39 1009.11 1008.86 1008.73
1022.36 1022.28 1022.11 1021.93 1021.75 1021.49 1021.21 1020.91 1020.57 1020.14 1019.80 1019.50 1019.15 1018.63 1018.17 1017.86 1017.62 1017.54 1017.56 1017.27 1017.36 1016.95 1016.36 1013.24 1011.75 1011.55 1011.07 1011.08 1011.17 1011.54 1012.02 1012.42 1012.98 1013.56 1014.61 1015.41 1015.74 1015.33 1015.58 1015.37 1015.23 1014.21 1014.06 1013.77 1013.21 1011.97 1010.97 1010.11 1009.72 1009.27 1009.00 1008.69 1008.42 1008.02
1022.20 1022.08 1022.01 1021.81 1021.56 1021.25 1021.01 1020.70 1020.46 1020.00 1019.58 1019.33 1018.95 1018.53 1018.09 1017.75 1017.48 1017.18 1017.20 1016.99 1016.92 1017.10 1016.46 1014.24 1012.56 1011.41 1011.02 1010.87 1011.09 1011.52 1012.18 1012.88 1013.62 1014.46 1015.22 1015.66 1015.46 1015.64 1015.86 1015.74 1014.89 1013.83 1013.31 1013.22 1012.37 1011.46 1011.13 1010.22 1009.50 1009.01 1008.81 1008.23 1007.67 1007.33
1021.99 1021.83 1021.77 1021.72 1021.40 1021.08 1020.77 1020.54 1020.22 1019.77 1019.37 1019.07 1018.69 1018.35 1017.97 1017.70 1017.37 1017.16 1017.08 1016.98 1016.63 1016.82 1016.78 1015.36 1013.19 1012.17 1011.36 1010.92 1011.27 1011.95 1012.61 1013.41 1013.93 1014.59 1015.15 1015.32 1015.17 1015.28 1015.84 1015.77 1013.46 1013.02 1012.62 1012.34 1011.84 1010.91 1010.62 1009.81 1009.04 1008.46 1008.30 1007.52 1007.07 1006.67
1021.83 1021.73 1021.45 1021.36 1021.22 1020.80 1020.56 1020.32 1019.95 1019.56 1019.18 1018.79 1018.45 1018.07 1017.78 1017.59 1017.68 1017.57 1017.36 1016.90 1016.70 1016.95 1016.89 1015.99 1014.35 1012.43 1011.71 1011.38 1011.81 1012.46 1012.90 1013.49 1013.98 1014.68 1015.16 1015.29 1015.36 1015.26 1015.49 1014.95 1012.67 1012.35 1012.15 1011.80 1011.23 1010.96 1010.02 1009.28 1008.83 1007.91 1007.64 1006.91 1006.55 1006.11
1021.66 1021.39 1021.35 1021.12 1020.86 1020.63 1020.38 1020.05 1019.64 1019.19 1018.81 1018.34 1017.94 1017.52 1017.28 1017.06 1017.18 1017.06 1016.59 1016.22 1016.55 1016.88 1016.87 1016.77 1015.14 1013.43 1011.84 1011.80 1012.13 1012.37 1013.20 1013.75 1014.33 1014.82 1015.16 1015.31 1015.58 1015.42 1014.90 1013.05 1012.46 1012.05 1011.65 1011.06 1010.58 1010.15 1009.66 1009.06 1008.23 1007.44 1006.96 1006.86 1006.37 1005.83
1021.37 1021.22 1021.03 1020.82 1020.57 1020.32 1020.02 1019.64 1019.28 1018.85 1018.42 1017.87 1017.35 1017.03 1017.09 1017.01 1016.85 1016.62 1016.27 1016.24 1016.38 1016.92 1016.79 1016.61 1016.13 1014.28 1012.49 1012.28 1012.11 1012.48 1012.80 1014.08 1014.59 1014.76 1014.98 1015.15 1015.39 1014.72 1012.79 1012.34 1012.13 1011.51 1011.42 1010.70 1009.92 1009.24 1008.61 1008.54 1007.99 1007.22 1006.89 1006.46 1006.38 1006.10
1021.14 1020.98 1020.68 1020.48 1020.30 1019.99 1019.63 1019.32 1018.99 1018.56 1017.93 1017.32 1017.26 1017.38 1017.14 1016.97 1016.49 1016.39 1016.30 1016.30 1016.42 1016.44 1016.66 1016.58 1016.06 1015.18 1013.86 1012.97 1012.69 1012.91 1013.28 1014.00 1014.53 1014.68 1014.73 1014.61 1013.91 1012.34 1011.84 1011.57 1011.28 1010.87 1010.35 1009.92 1009.46 1008.77 1008.33 1008.00 1007.69 1007.37 1007.35 1006.89 1006.52 1006.45
1020.83 1020.64 1020.43 1020.16 1019.96 1019.66 1019.32 1019.01 1018.76 1018.39 1017.78 1017.85 1018.02 1017.76 1017.46 1016.89 1016.64 1016.36 1016.21 1016.19 1016.32 1016.27 1016.15 1015.75 1015.55 1015.24 1013.84 1013.39 1012.97 1012.95 1013.40 1013.84 1014.12 1014.15 1014.16 1013.59 1012.72 1011.52 1010.85 1010.78 1010.49 1010.15 1009.69 1009.27 1008.92 1008.56 1008.32 1008.12 1007.91 1007.62 1007.59 1007.26 1006.95 1006.77
1020.54 1020.28 1020.07 1019.85 1019.54 1019.28 1018.97 1018.66 1018.50 1018.62 1018.69 1018.60 1018.68 1018.25 1017.78 1017.24 1016.70 1016.44 1015.92 1015.81 1015.66 1015.15 1014.91 1014.76 1014.37 1014.58 1013.86 1013.31 1012.99 1013.05 1013.29 1013.68 1013.56 1013.41 1013.38 1012.34 1010.99 1010.44 1010.45 1010.17 1009.90 1009.55 1009.18 1008.74 1008.52 1008.42 1008.33 1008.04 1007.98 1007.84 1007.82 1007.71 1007.53 1007.34
1020.19 1019.91 1019.70 1019.50 1019.16 1018.87 1018.42 1018.11 1018.10 1018.12 1018.20 1018.33 1018.22 1017.89 1017.47 1017.16 1016.65 1015.84 1015.25 1014.80 1014.61 1014.20 1013.92 1013.90 1013.79 1013.67 1013.38 1013.15 1012.79 1012.74 1013.06 1013.35 1013.00 1012.97 1012.22 1011.05 1010.28 1010.21 1010.10 1009.89 1009.60 1009.21 1008.89 1008.81 1008.71 1008.63 1008.45 1008.58 1008.57 1008.44 1008.36 1008.40 1008.34 1008.23
1019.83 1019.63 1019.42 1019.11 1018.74 1018.41 1018.09 1017.72 1017.76 1017.99 1018.30 1018.15 1017.88 1017.71 1017.41 1016.71 1016.17 1015.19 1014.82 1014.62 1014.34 1014.06 1013.77 1013.64 1013.44 1013.08 1012.70 1012.66 1012.62 1012.68 1012.93 1012.78 1012.76 1012.21 1011.10 1010.40 1010.18 1010.08 1009.93 1009.72 1009.56 1009.25 1009.10 1009.24 1009.14 1008.99 1009.13 1009.27 1009.26 1009.23 1009.27 1009.26 1009.21 1009.20
1019.47 1019.31 1019.03 1018.70 1018.51 1018.25 1017.72 1017.44 1017.60 1018.00 1018.10 1018.01 1017.66 1017.26 1016.88 1016.25 1015.67 1015.18 1014.77 1014.51 1014.14 1014.02 1013.78 1013.46 1013.13 1012.79 1012.40 1012.37 1012.52 1012.73 1012.80 1012.35 1011.67 1010.90 1010.58 1010.21 1010.15 1010.02 1009.81 1009.57 1009.48 1009.42 1009.53 1009.66 1009.67 1009.67 1009.98 1010.08 1010.07 1010.15 1010.22 1010.17 1010.13 1010.16
1019.20 1018.95 1018.73 1018.68 1018.53 1018.23 1018.05 1017.90 1017.95 1018.09 1017.94 1017.81 1017.44 1016.97 1016.61 1016.57 1016.01 1015.46 1015.01 1014.56 1014.10 1014.03 1013.73 1013.59 1013.16 1012.63 1012.19 1012.35 1012.57 1012.35 1012.29 1011.49 1010.80 1010.34 1010.13 1010.12 1010.05 1009.88 1009.75 1009.65 1009.61 1009.77 1010.00 1010.26 1010.23 1010.55 1010.80 1010.87 1010.85 1010.99 1011.03 1011.04 1011.03 1010.99
1019.00 1019.05 1018.71 1018.58 1018.37 1018.03 1017.88 1018.05 1018.03 1017.98 1017.57 1017.17 1016.81 1016.61 1016.77 1016.63 1016.32 1015.80 1015.17 1014.49 1013.95 1013.93 1013.71 1013.36 1013.10 1012.57 1012.34 1012.37 1012.10 1011.73 1011.37 1010.83 1010.46 1010.24 1010.15 1009.89 1009.84 1009.91 1009.81 1009.85 1009.89 1010.29 1010.52 1010.70 1010.71 1011.05 1011.20 1011.35 1011.39 1011.48 1011.73 1011.98 1011.88 1011.93
1019.05 1018.89 1018.64 1018.49 1018.31 1018.03 1017.95 1017.86 1017.66 1017.34 1016.74 1016.42 1016.52 1016.24 1016.30 1016.00 1015.68 1015.30 1014.58 1014.14 1014.01 1013.83 1013.63 1013.40 1013.20 1012.74 1011.96 1011.43 1010.98 1010.75 1010.63 1010.41 1010.36 1010.22 1009.90 1009.64 1009.72 1009.84 1009.84 1009.96 1010.23 1010.69 1011.01 1011.03 1011.03 1011.34 1011.55 1011.65 1011.88 1012.19 1012.21 1012.43 1012.52 1012.61
1018.67 1018.52 1018.37 1018.39 1018.41 1018.43 1018.27 1017.68 1017.50 1016.94 1016.13 1015.85 1015.56 1015.62 1015.56 1015.13 1014.52 1014.06 1013.91 1013.69 1013.72 1013.68 1013.56 1013.29 1013.02 1012.32 1011.44 1011.00 1010.72 1010.56 1010.37 1010.25 1010.16 1010.01 1009.67 1009.56 1009.67 1009.76 1009.93 1010.09 1010.54 1010.96 1011.17 1011.33 1011.39 1011.51 1011.55 1011.57 1011.84 1012.24 1012.53 1012.68 1012.84 1013.12
1018.16 1017.83 1017.79 1017.91 1018.18 1018.34 1018.21 1017.64 1017.17 1016.79 1015.98 1015.39 1015.31 1015.17 1014.95 1014.36 1013.65 1013.30 1013.20 1013.35 1013.42 1013.41 1013.03 1012.86 1012.20 1011.25 1010.81 1010.21 1009.91 1009.82 1009.74 1009.75 1009.78 1009.76 1009.81 1009.86 1010.00 1010.10 1010.21 1010.29 1010.71 1011.14 1011.46 1011.53 1011.60 1011.63 1011.81 1011.95 1012.11 1012.26 1012.50 1012.81 1013.04 1013.46
1017.91 1017.71 1017.57 1017.49 1017.70 1018.10 1018.15 1017.42 1016.75 1016.23 1015.66 1015.28 1014.75 1014.62 1013.99 1013.39 1013.10 1012.78 1012.66 1012.58 1012.91 1012.36 1012.12 1011.73 1011.22 1010.91 1010.29 1009.66 1009.29 1009.17 1009.42 1009.61 1009.57 1009.64 1009.72 1009.99 1010.22 1010.29 1010.44 1010.59 1010.94 1011.28 1011.48 1011.57 1011.70 1011.84 1011.90 1012.09 1012.32 1012.41 1012.46 1012.74 1012.88 1013.04
1018.00 1017.65 1017.67 1017.62 1017.78 1017.90 1017.74 1017.03 1016.69 1016.04 1015.77 1014.76 1014.32 1013.68 1013.19 1012.53 1012.03 1011.82 1011.78 1011.99 1011.72 1011.07 1010.86 1010.85 1010.15 1009.93 1009.72 1009.53 1009.21 1009.11 1009.26 1009.30 1009.40 1009.55 1009.69 1009.65 1010.37 1010.51 1010.64 1010.55 1010.96 1011.36 1011.58 1011.65 1011.85 1012.00 1012.08 1012.09 1012.15 1012.45 1012.66 1012.94 1012.96 1013.11
1017.88 1017.86 1017.74 1017.62 1017.37 1017.28 1016.90 1016.39 1016.26 1015.53 1014.97 1014.04 1013.41 1012.87 1012.17 1011.49 1011.06 1011.13 1011.15 1010.86 1010.38 1009.88 1009.50 1009.48 1009.24 1009.03 1009.44 1009.40 1009.27 1009.22 1009.26 1009.29 1009.60 1009.68 1009.66 1009.60 1009.88 1009.97 1010.31 1010.57 1010.84 1011.11 1011.50 1011.78 1011.85 1012.09 1012.30 1012.38 1012.48 1012.64 1012.90 1013.10 1013.22 1013.38
1017.92 1017.97 1017.45 1017.31 1017.29 1016.89 1016.56 1016.12 1015.60 1015.05 1014.27 1013.52 1012.91 1012.24 1011.52 1010.80 1010.53 1010.45 1010.36 1010.18 1010.03 1009.77 1009.57 1009.29 1008.99 1009.28 1009.34 1009.34 1009.31 1009.32 1009.16 1009.24 1009.35 1009.34 1009.47 1009.68 1009.69 1009.73 1009.85 1010.23 1010.51 1010.78 1011.11 1011.50 1011.95 1012.26 1012.40 1012.52 1012.69 1012.88 1013.07 1013.34 1013.59 1013.68
1018.46 1018.08 1017.94 1017.43 1016.95 1016.56 1016.02 1015.52 1014.80 1014.24 1013.62 1013.40 1012.74 1011.97 1011.09 1010.76 1010.51 1010.16 1009.89 1009.88 1009.77 1009.53 1009.38 1009.17 1009.06 1008.99 1009.11 1009.04 1009.07 1009.12 1009.12 1009.18 1009.25 1009.20 1009.28 1009.48 1009.56 1009.94 1010.07 1010.38 1010.52 1010.77 1011.15 1011.69 1012.18 1012.43 1012.66 1012.82 1012.97 1013.12 1013.42 1013.71 1013.87 1014.00
1018.11 1017.64 1017.65 1016.98 1016.53 1016.30 1015.65 1015.18 1014.73 1014.23 1013.80 1013.12 1012.46 1011.98 1011.35 1010.89 1010.40 1009.99 1009.88 1009.82 1009.76 1009.54 1009.37 1009.26 1009.22 1008.93 1008.80 1008.73 1008.84 1009.02 1009.16 1009.01 1009.19 1009.28 1009.27 1009.13 1009.12 1009.33 1009.66 1009.96 1010.61 1011.26 1011.26 1011.37 1011.81 1012.33 1012.66 1012.79 1012.86 1013.09 1013.42 1013.66 1013.75 1013.85
1017.97 1017.40 1016.97 1016.32 1016.14 1015.83 1015.25 1014.62 1014.24 1013.97 1013.49 1012.88 1012.52 1012.13 1011.81 1011.10 1010.33 1009.96 1009.42 1009.42 1009.43 1009.14 1008.90 1008.66 1008.54 1008.48 1008.28 1008.39 1008.56 1008.51 1008.69 1008.83 1008.97 1009.14 1009.02 1008.80 1008.81 1009.02 1008.92 1009.45 1010.26 1010.69 1010.96 1011.23 1011.45 1011.73 1012.18 1012.42 1012.57 1012.92 1013.35 1013.57 1013.70 1013.80
1017.84 1017.48 1017.14 1016.42 1016.07 1015.29 1014.92 1014.24 1013.91 1013.45 1012.86 1012.72 1012.44 1012.00 1011.63 1011.13 1010.47 1009.63 1009.21 1008.98 1008.84 1008.60 1008.30 1007.94 1007.68 1007.82 1007.90 1007.96 1008.25 1008.70 1008.80 1008.82 1008.98 1008.95 1009.00 1009.24 1009.10 1009.18 1009.28 1009.58 1009.97 1010.32 1010.64 1010.98 1011.37 1011.78 1011.92 1012.12 1012.68 1012.98 1013.22 1013.47 1013.66 1013.71
1017.68 1016.99 1016.81 1016.20 1015.53 1014.87 1014.22 1013.89 1013.51 1012.97 1012.52 1012.53 1012.55 1011.88 1011.13 1010.43 1009.68 1009.14 1008.70 1008.63 1008.46 1008.35 1008.08 1007.74 1007.86 1007.79 1008.09 1008.39 1008.52 1008.58 1008.85 1009.01 1008.93 1009.19 1009.28 1009.39 1009.69 1010.17 1010.04 1010.17 1010.44 1010.66 1010.99 1011.61 1011.73 1011.77 1011.90 1012.20 1012.37 1012.70 1013.08 1013.37 1013.59 1013.70
1016.63 1016.26 1016.23 1015.76 1015.20 1014.12 1012.94 1012.51 1011.96 1011.83 1011.46 1011.65 1011.73 1011.17 1010.66 1009.97 1008.57 1008.28 1008.28 1008.30 1008.23 1008.22 1008.06 1008.00 1008.00 1007.92 1008.29 1008.50 1008.73 1009.11 1009.12 1008.98 1009.04 1009.22 1009.27 1009.43 1009.86 1010.16 1010.36 1010.56 1010.86 1011.04 1011.23 1011.51 1011.82 1012.28 1012.45 1012.53 1012.75 1012.98 1013.27 1013.48 1013.60 1013.67
1015.94 1015.71 1015.63 1015.21 1014.37 1013.00 1011.94 1011.29 1010.89 1010.58 1010.37 1010.06 1009.91 1009.97 1009.97 1009.54 1008.33 1007.93 1007.97 1007.97 1007.96 1008.05 1007.94 1008.02 1008.13 1008.12 1008.39 1008.68 1008.83 1009.17 1009.33 1009.16 1009.08 1009.11 1009.19 1009.37 1009.74 1010.13 1010.46 1010.62 1010.82 1011.08 1011.27 1011.49 1011.85 1012.17 1012.47 1012.71 1012.89 1013.14 1013.36 1013.45 1013.47 1013.55
1015.37 1015.27 1015.23 1014.93 1013.67 1012.10 1011.69 1011.32 1010.79 1010.27 1009.74 1009.50 1009.23 1009.29 1009.46 1008.98 1008.30 1008.12 1008.19 1007.86 1007.97 1008.11 1008.07 1007.93 1008.06 1008.22 1008.35 1008.58 1008.75 1009.05 1009.27 1009.09 1009.03 1008.99 1009.08 1009.42 1009.89 1010.22 1010.42 1010.71 1011.01 1011.16 1011.40 1011.62 1011.95 1012.29 1012.52 1012.79 1013.11 1013.27 1013.30 1013.31 1013.40 1013.48
1014.98 1014.76 1014.56 1014.43 1013.57 1012.56 1011.59 1011.24 1010.52 1009.98 1009.36 1009.06 1008.87 1008.90 1009.12 1009.14 1008.79 1008.55 1008.10 1008.02 1008.04 1008.02 1008.12 1008.12 1008.17 1008.21 1008.26 1008.43 1008.74 1008.94 1008.92 1008.87 1008.85 1008.93 1009.16 1009.46 1009.81 1010.25 1010.64 1011.05 1011.23 1011.39 1011.63 1011.94 1012.26 1012.54 1012.81 1013.03 1013.15 1013.15 1013.15 1013.21 1013.32 1013.41
Wind_Speed
8 8 10 12 13 12 14 15 15 15 16 16 16 17 16 16 16 7 4 3 2 1 7 5 4 4 2 2 3 3 4 3 3 4 3 3 2 2 1 2 2 3 3 3 2 1 7 6 3 2 7 5 6 7
6 8 10 11 12 12 14 14 14 15 15 15 15 16 15 15 13 9 2 3 1 3 7 3 6 6 6 5 5 2 3 3 4 5 1 3 1 2 3 3 1 2 6 4 8 7 6 5 7 7 6 8 11 7
6 7 9 10 11 12 14 15 14 15 16 16 16 16 15 13 11 8 3 3 2 3 6 4 4 2 2 9 8 5 3 3 2 3 4 2 2 4 3 5 1 3 3 3 3 5 7 6 6 7 6 9 16 16
7 8 9 9 11 12 13 14 14 14 14 15 15 16 14 13 11 9 3 1 1 1 3 8 4 4 3 3 10 13 4 4 5 3 3 3 2 3 3 2 4 5 4 2 6 8 9 8 8 12 13 15 15 16
6 7 8 10 11 12 14 14 14 14 14 15 15 15 15 14 12 5 3 2 2 1 3 7 11 4 6 1 8 8 4 3 3 3 3 3 2 3 1 1 4 4 6 5 6 6 7 15 17 20 18 16 17 15
7 7 9 10 11 12 14 15 15 15 15 16 15 15 15 12 12 2 1 1 0 2 2 5 4 5 5 2 7 5 3 3 3 3 2 1 1 3 2 3 7 5 4 3 6 8 14 16 18 18 16 17 15 14
8 8 9 10 13 13 13 14 15 15 16 16 16 15 15 10 2 1 2 1 5 1 1 6 7 4 4 1 3 3 3 2 3 2 1 3 1 3 2 4 7 5 6 6 8 8 9 9 8 15 16 16 13 12
9 9 10 11 12 14 13 14 15 16 17 18 18 17 13 9 4 3 2 4 3 1 2 2 6 5 3 0 3 1 4 2 3 3 1 2 1 2 4 9 6 7 9 11 9 8 10 14 15 15 10 8 9 10
10 10 12 11 12 13 14 14 15 17 18 20 18 8 2 1 0 1 3 2 1 2 2 2 2 4 6 2 1 3 2 3 1 2 1 3 1 5 8 6 6 8 5 11 11 13 12 8 11 8 9 5 5 8
11 11 11 11 12 13 14 13 14 16 19 17 2 3 0 1 10 5 1 0 1 1 2 2 0 5 1 3 2 3 2 3 2 2 3 2 5 6 7 8 8 9 9 8 9 10 12 15 10 10 9 7 4 4
11 11 12 11 13 13 14 14 13 14 8 4 4 2 2 10 1 1 2 1 1 2 3 4 4 3 2 2 0 1 3 1 2 3 3 2 4 4 3 4 6 7 8 8 9 8 6 6 6 8 9 11 9 6
11 11 12 12 13 14 15 13 10 2 1 1 3 4 3 2 1 2 2 1 3 3 3 3 3 5 4 1 2 1 3 2 3 4 2 3 5 2 3 4 5 6 7 7 3 4 7 7 6 6 7 8 8 7
12 11 11 13 14 15 14 10 8 7 2 1 2 3 1 0 1 4 4 3 2 2 1 2 2 3 2 2 2 3 3 3 3 2 4 5 2 3 4 3 5 5 4 4 5 6 6 9 9 8 7 8 9 9
11 10 12 14 15 10 13 11 6 1 1 1 1 3 3 3 4 1 2 1 1 3 5 3 3 2 1 1 2 3 1 3 3 3 5 2 1 4 4 3 3 3 5 5 7 8 10 9 9 9 10 9 8 10
9 10 12 9 8 12 13 3 7 1 1 2 2 4 4 3 2 0 1 3 2 2 3 3 3 0 1 2 2 3 2 3 4 3 3 2 2 2 2 3 3 4 5 6 7 9 9 7 8 9 8 8 8 8
9 9 1 4 9 10 4 4 1 1 2 2 4 3 2 1 3 1 1 3 1 1 2 2 2 1 1 2 1 5 5 5 3 2 1 1 1 1 1 3 5 6 7 6 8 8 7 7 6 4 5 6 6 6
5 2 3 4 12 10 2 1 1 3 3 3 4 2 2 3 4 4 3 3 0 3 2 0 1 2 0 3 4 4 5 3 2 2 1 3 2 4 3 5 7 7 6 6 8 5 4 3 3 5 6 5 6 6
3 4 8 5 9 3 1 2 2 3 4 4 3 3 3 3 3 4 4 3 1 1 3 1 2 2 3 3 2 3 3 3 2 2 2 2 4 5 4 6 7 7 7 5 6 3 3 4 5 4 5 4 6 5
4 5 9 9 4 2 2 2 2 3 4 3 3 2 3 4 5 7 5 3 3 3 2 1 2 3 3 3 4 3 2 2 1 1 2 1 5 5 5 7 9 7 6 4 4 3 3 4 3 3 4 4 4 3
15 12 10 7 4 1 2 3 2 3 3 2 2 3 3 4 3 3 4 4 4 4 4 4 4 3 3 3 4 3 2 2 2 2 2 3 2 4 5 7 5 6 5 4 4 5 3 4 3 4 4 4 6 4
4 3 4 3 2 2 2 3 3 3 3 3 2 2 4 2 3 3 4 4 3 3 3 4 8 7 6 5 2 3 2 1 1 1 2 3 2 3 4 5 4 4 3 3 4 3 4 3 2 3 4 4 4 3
2 4 1 1 1 3 3 3 3 3 3 3 4 3 3 3 3 3 4 2 4 4 6 7 9 3 0 3 3 1 2 2 3 3 4 5 3 3 3 5 5 3 4 3 3 2 2 2 2 3 4 3 3 3
5 0 1 2 3 2 4 1 3 3 3 3 2 3 3 2 2 3 2 3 3 3 3 4 7 5 4 3 3 1 1 3 2 3 3 1 2 4 6 4 4 5 5 3 3 3 3 1 4 5 4 4 3 3
1 2 2 2 3 3 2 3 3 3 3 3 2 3 3 2 1 2 2 3 3 2 2 3 4 3 2 2 2 2 3 3 2 2 3 2 1 1 4 5 5 5 4 3 3 3 3 4 5 4 4 5 4 4
2 2 1 3 2 3 3 3 3 3 2 3 3 3 2 2 2 2 1 1 3 3 4 4 2 4 4 2 1 2 2 3 3 2 2 1 1 4 4 3 4 5 5 6 4 4 4 4 4 4 4 3 4 4
2 2 4 3 1 3 2 3 3 3 3 3 3 3 3 2 2 1 0 2 2 2 3 3 2 1 2 3 4 3 3 2 3 1 3 3 4 5 6 8 6 2 2 4 6 6 6 4 4 6 5 5 6 5
3 3 2 4 2 3 4 4 3 3 3 3 2 2 3 3 2 2 2 2 3 3 3 3 3 4 3 4 3 4 4 4 3 3 3 1 3 4 8 9 7 5 5 5 5 6 6 5 5 5 5 3 3 3
3 2 3 3 3 3 3 3 2 2 3 1 4 2 2 2 3 3 3 3 4 4 4 4 4 4 4 5 4 4 3 3 2 1 4 4 2 4 5 4 4 11 5 5 5 5 5 4 6 6 5 4 2 1
4 3 1 6 4 3 3 3 3 3 0 2 4 4 3 3 3 5 6 3 4 3 3 3 4 5 6 4 4 2 3 3 2 5 6 5 4 3 3 5 5 4 5 5 6 6 6 6 6 5 5 4 3 2
4 4 2 3 3 4 4 7 4 4 4 4 4 4 4 4 5 4 4 3 2 2 1 3 2 4 7 7 5 3 1 1 2 3 5 5 5 4 4 5 5 4 4 5 5 5 7 6 6 3 3 2 1 1
3 1 2 3 5 5 7 7 7 7 5 5 8 8 4 4 4 1 2 2 2 1 2 3 4 3 5 5 4 4 2 1 0 3 4 4 6 6 4 4 4 4 4 5 5 4 5 3 4 3 3 2 2 2
2 3 2 3 5 5 4 1 3 3 2 1 1 2 2 2 3 2 3 3 3 3 1 2 5 3 3 4 4 3 3 0 0 3 7 7 6 5 5 4 4 4 5 5 5 5 5 5 4 3 3 2 3 1
3 2 3 3 4 5 3 4 3 4 3 1 2 2 2 1 4 3 3 2 3 3 3 1 2 2 3 3 3 2 2 1 2 5 5 7 13 9 5 4 4 5 6 6 5 4 5 5 4 4 4 3 3 3
Wind_Direction
298 316 323 323 323 338 336 337 342 339 340 345 348 347 346 353 356 3 292 334 68 259 276 214 231 186 72 140 143 268 31 347 45 77 132 202 159 241 58 245 187 176 148 212 105 169 279 187 338 122 226 267 247 274
317 323 321 321 332 332 331 335 335 337 332 341 344 340 341 345 356 8 321 332 2 193 253 268 254 246 188 187 133 50 204 198 189 93 135 118 138 77 147 268 317 282 185 191 182 217 232 206 218 254 265 263 284 252
319 319 319 324 327 328 328 330 335 341 343 342 340 338 339 340 355 3 289 316 13 352 300 342 266 317 185 218 202 155 268 186 158 171 152 150 158 127 170 240 236 266 152 221 29 275 256 289 266 256 263 282 294 289
320 319 315 322 325 324 327 329 334 336 336 335 336 333 334 334 343 346 303 261 275 288 295 282 327 301 294 231 194 193 140 60 95 69 97 127 161 156 210 224 198 204 150 222 266 291 290 277 279 290 303 293 285 281
320 325 325 326 328 330 328 329 327 329 332 325 325 330 330 334 335 323 252 231 257 327 288 286 311 279 292 145 164 173 132 79 71 60 81 210 142 118 25 44 260 192 195 167 234 243 275 297 302 297 294 284 283 285
319 323 327 323 323 323 329 327 325 327 327 327 330 325 323 341 340 339 101 162 266 33 286 303 298 302 319 86 143 150 109 85 79 136 196 179 275 109 130 230 258 222 229 233 279 300 301 286 286 281 278 281 286 284
321 320 320 320 323 329 322 322 321 323 322 321 319 315 312 318 345 210 209 269 311 346 36 303 319 294 308 73 82 99 72 125 119 133 143 138 176 105 136 222 254 232 248 266 262 289 293 288 269 293 293 286 283 279
317 320 320 319 319 321 318 317 319 321 321 318 315 311 299 291 261 275 260 264 163 94 78 295 279 327 10 274 99 108 104 77 24 143 76 122 25 62 257 246 277 286 291 290 275 279 268 284 287 284 282 279 296 310
320 320 318 318 317 314 312 314 319 320 319 316 319 316 22 56 288 329 301 124 196 152 309 261 283 279 353 354 105 58 88 95 11 124 219 105 191 231 228 242 264 264 242 280 293 299 298 286 277 303 317 312 315 336
317 313 317 312 313 316 331 324 320 321 319 312 24 28 152 6 317 324 349 126 11 346 12 240 78 267 22 0 33 95 41 118 151 243 114 146 254 260 251 237 252 274 275 282 298 301 306 310 322 334 343 342 335 10
312 316 312 318 315 316 317 319 320 327 344 26 10 316 321 309 1 227 209 167 138 245 193 232 199 263 294 58 17 57 148 133 123 243 158 222 264 248 236 251 259 262 269 274 271 284 323 328 336 350 4 17 22 11
314 311 312 315 313 313 311 308 310 354 219 200 253 273 272 293 229 273 217 168 211 236 189 216 222 198 276 187 120 21 107 74 215 155 218 249 246 203 303 294 303 316 303 316 15 26 21 24 20 27 36 41 39 39
313 312 314 310 314 312 306 302 294 283 300 288 219 247 239 190 332 210 201 204 214 195 260 287 277 200 272 242 94 99 116 201 125 210 237 231 238 291 305 312 323 312 327 28 44 51 51 44 43 43 54 51 54 54
311 311 311 312 314 313 325 304 256 134 137 266 278 281 188 203 242 346 32 351 223 291 310 302 261 240 268 159 146 117 166 123 223 222 232 238 254 293 306 304 322 348 59 52 59 61 61 54 49 43 48 45 58 62
302 309 311 314 345 337 330 339 130 119 277 261 226 240 234 269 277 132 343 331 303 321 329 317 285 286 350 206 63 89 94 250 219 238 224 233 255 275 343 15 347 88 76 73 73 66 63 53 54 57 49 57 65 67
325 322 42 22 352 346 19 66 56 60 264 242 243 267 233 6 288 262 284 276 218 270 295 238 271 359 16 62 165 215 169 221 247 215 197 231 239 101 57 41 82 89 97 94 83 75 66 55 41 40 50 46 49 58
330 244 295 350 347 333 252 253 193 221 242 224 234 226 216 260 226 237 220 250 239 352 283 11 246 190 194 209 239 190 203 227 247 284 230 227 163 150 114 93 99 110 104 95 94 89 91 81 72 66 62 33 61 68
237 274 313 307 346 323 288 227 245 247 246 225 227 226 196 219 232 245 247 235 159 305 333 273 319 248 246 241 254 240 248 257 228 248 238 205 134 142 124 113 114 121 115 109 111 95 64 77 77 70 86 85 77 59
270 279 279 283 292 315 317 255 207 265 252 270 260 210 218 238 226 235 234 223 188 176 251 263 248 231 229 232 202 218 222 205 236 289 276 97 140 135 120 116 117 122 107 104 97 82 90 104 110 109 105 98 91 76
297 288 272 246 205 218 276 254 204 260 270 273 223 252 227 227 223 212 211 172 164 175 194 207 231 248 252 226 205 199 181 180 132 75 75 73 134 121 127 119 126 120 105 98 78 71 83 82 54 76 93 105 99 92
313 269 11 140 116 190 274 292 259 235 290 269 260 218 252 225 231 209 205 153 171 215 177 207 240 235 243 246 169 95 35 215 81 140 122 106 153 117 131 122 126 126 116 111 113 65 59 91 111 89 87 80 90 105
273 335 328 195 169 187 241 220 251 298 274 281 300 218 267 263 227 214 134 151 206 210 179 210 242 229 331 314 309 31 258 27 45 102 111 93 114 159 181 164 150 135 125 126 124 128 91 107 84 91 102 106 97 78
315 335 247 242 244 230 268 170 252 225 259 260 247 260 247 238 255 115 192 210 246 250 250 221 230 221 190 221 269 31 227 104 79 94 96 359 240 184 162 176 159 144 139 143 126 96 111 70 104 107 102 91 99 81
329 278 243 264 206 267 296 248 229 253 255 251 264 264 251 275 317 203 239 179 212 258 257 261 194 123 77 145 199 183 184 125 118 79 84 3 338 179 149 160 155 149 139 133 115 118 123 111 108 111 117 113 94 92
335 271 125 278 264 259 240 251 249 245 298 342 285 281 282 320 306 301 330 312 323 331 329 355 141 170 167 164 142 145 96 98 67 59 334 285 143 110 91 99 115 135 139 129 138 135 116 110 117 130 116 106 118 108
283 214 187 266 223 233 293 289 281 294 294 268 262 326 297 311 280 261 240 252 263 284 321 354 335 203 163 185 155 161 158 108 105 95 271 211 164 151 140 125 122 97 175 144 132 131 140 154 153 135 132 134 134 118
288 275 248 221 251 273 261 238 237 256 263 280 315 303 343 288 329 313 296 230 227 244 246 254 243 209 182 147 124 104 114 125 169 202 284 298 139 157 145 141 153 180 158 151 146 146 149 155 161 122 123 134 146 142
266 264 236 290 287 240 260 275 300 276 256 227 292 299 295 258 258 252 241 266 256 296 304 281 230 187 139 126 118 126 115 170 236 25 66 71 63 102 93 90 97 131 133 150 140 121 153 141 110 144 156 133 149 160
263 255 268 281 266 262 235 213 242 248 202 24 343 297 299 231 248 279 291 294 307 321 334 32 48 109 102 100 100 121 137 147 120 129 130 108 90 56 47 110 100 92 105 99 85 77 110 137 143 137 134 125 135 137
261 179 238 261 266 265 238 192 222 207 208 171 199 250 277 251 257 241 251 252 276 299 245 146 131 123 134 139 141 111 47 115 126 137 146 149 166 145 136 125 121 124 123 130 110 94 91 92 98 82 94 103 92 35
274 351 273 242 253 253 261 279 277 270 257 242 218 231 232 299 305 44 150 197 228 192 89 104 125 126 120 125 130 124 71 327 106 188 198 130 131 139 146 146 133 131 128 127 129 132 129 119 122 130 138 186 216 201
258 234 249 289 280 282 299 296 295 305 302 311 319 180 124 265 308 26 343 29 80 87 22 105 116 148 164 134 116 108 125 26 12 171 157 135 135 149 134 123 126 120 118 111 108 117 122 116 119 153 175 156 154 133
282 268 260 288 290 299 303 344 308 305 298 291 211 164 107 347 335 333 329 30 60 84 105 88 81 121 139 139 130 138 276 354 59 115 118 140 135 135 123 122 128 120 115 114 116 112 123 149 183 150 113 115 183 242